DLH39C EDDF-LGAV

Flight info

Callsign DLH39C
Flight time 2h 19m
Altitude 35000
Route CINDY8S/18 CINDY Z74 LAMPU DCT NOMBO Y161 MAH L173 OTT M867 RADIZ DCT NEMEK DCT GLOMY DCT INLOT DCT PINDO UL607 XORKI
Aircraft A321/M-SDE3FGHIRWY/LB1

Departure

Time 2026-05-04 15:50
Airport Frankfurt Main Airport (EDDF)

Arrival

Time 2026-05-04 18:09
Airport Athens Eleftherios Venizelos International Airport (LGAV)
Time Latitude Longitude Altitude Speed Heading
2026-05-04 15:04 50.04803 8.56914 356 ft 0 kts 294°
2026-05-04 15:30 50.04782 8.56986 359 ft 4 kts 285°
2026-05-04 15:30 50.04774 8.57020 356 ft 2 kts 205°
2026-05-04 15:31 50.04773 8.57019 363 ft 0 kts 205°
2026-05-04 15:37 50.04770 8.57017 362 ft 1 kts 205°
2026-05-04 15:37 50.04758 8.57009 356 ft 3 kts 205°
2026-05-04 15:38 50.04737 8.56994 363 ft 4 kts 205°
2026-05-04 15:38 50.04708 8.56972 358 ft 5 kts 205°
2026-05-04 15:38 50.04670 8.56945 358 ft 7 kts 205°
2026-05-04 15:38 50.04623 8.56918 359 ft 8 kts 196°
2026-05-04 15:39 50.04570 8.56898 358 ft 6 kts 192°
2026-05-04 15:39 50.04527 8.56883 359 ft 9 kts 193°
2026-05-04 15:39 50.04429 8.56735 360 ft 14 kts 249°
2026-05-04 15:40 50.04392 8.56583 359 ft 16 kts 250°
2026-05-04 15:40 50.04353 8.56417 362 ft 17 kts 250°
2026-05-04 15:40 50.04310 8.56237 360 ft 18 kts 249°
2026-05-04 15:40 50.04264 8.56047 359 ft 19 kts 249°
2026-05-04 15:41 50.04217 8.55849 356 ft 20 kts 249°
2026-05-04 15:41 50.04167 8.55641 360 ft 21 kts 249°
2026-05-04 15:41 50.04116 8.55427 356 ft 21 kts 250°
2026-05-04 15:41 50.04077 8.55262 360 ft 15 kts 249°
2026-05-04 15:42 50.04040 8.55112 354 ft 11 kts 249°
2026-05-04 15:42 50.04030 8.55074 359 ft 0 kts 249°
2026-05-04 15:42 50.04030 8.55073 359 ft 0 kts 249°
2026-05-04 15:42 50.04020 8.55029 360 ft 8 kts 250°
2026-05-04 15:43 50.03992 8.54909 358 ft 14 kts 250°
2026-05-04 15:43 50.03955 8.54754 353 ft 16 kts 250°
2026-05-04 15:43 50.03914 8.54579 353 ft 18 kts 250°
2026-05-04 15:43 50.03866 8.54389 351 ft 19 kts 243°
2026-05-04 15:44 50.03796 8.54211 356 ft 20 kts 246°
2026-05-04 15:44 50.03751 8.54016 344 ft 19 kts 250°
2026-05-04 15:44 50.03703 8.53820 348 ft 20 kts 249°
2026-05-04 15:44 50.03653 8.53617 344 ft 19 kts 248°
2026-05-04 15:45 50.03606 8.53428 335 ft 19 kts 250°
2026-05-04 15:45 50.03574 8.53298 338 ft 20 kts 249°
2026-05-04 15:45 50.03531 8.53116 337 ft 17 kts 250°
2026-05-04 15:45 50.03503 8.53000 335 ft 1 kts 249°
2026-05-04 15:46 50.03501 8.52992 334 ft 0 kts 249°
2026-05-04 15:46 50.03501 8.52991 334 ft 0 kts 249°
2026-05-04 15:47 50.03495 8.52967 337 ft 4 kts 249°
2026-05-04 15:47 50.03485 8.52925 335 ft 9 kts 249°
2026-05-04 15:47 50.03460 8.52833 334 ft 8 kts 244°
2026-05-04 15:47 50.03429 8.52730 332 ft 13 kts 246°
2026-05-04 15:48 50.03394 8.52617 334 ft 12 kts 221°
2026-05-04 15:48 50.03342 8.52596 335 ft 0 kts 180°
2026-05-04 15:49 50.03299 8.52596 332 ft 27 kts 179°
2026-05-04 15:49 50.02795 8.52602 333 ft 114 kts 179°
2026-05-04 15:50 50.01765 8.52606 468 ft 169 kts 184°
2026-05-04 15:50 50.00547 8.52546 1208 ft 187 kts 185°
2026-05-04 15:50 49.99196 8.52390 2030 ft 203 kts 187°
2026-05-04 15:50 49.97745 8.52184 2719 ft 215 kts 187°
2026-05-04 15:51 49.96198 8.52367 3122 ft 234 kts 156°
2026-05-04 15:51 49.94973 8.54026 3732 ft 240 kts 121°
2026-05-04 15:51 49.94248 8.56364 4467 ft 242 kts 112°
2026-05-04 15:51 49.93726 8.58855 5235 ft 244 kts 99°
2026-05-04 15:52 49.93773 8.61541 5781 ft 260 kts 84°
2026-05-04 15:52 49.93985 8.64436 6158 ft 276 kts 90°
2026-05-04 15:52 49.93802 8.67347 6765 ft 276 kts 112°
2026-05-04 15:52 49.92913 8.69955 7503 ft 274 kts 131°
2026-05-04 15:53 49.91559 8.71996 8240 ft 272 kts 148°
2026-05-04 15:53 49.89994 8.73670 8935 ft 274 kts 149°
2026-05-04 15:53 49.88541 8.75620 9620 ft 282 kts 135°
2026-05-04 15:53 49.87432 8.78182 10201 ft 293 kts 123°
2026-05-04 15:54 49.86405 8.81046 10338 ft 315 kts 123°
2026-05-04 15:54 49.85301 8.84109 10467 ft 336 kts 123°
2026-05-04 15:54 49.84145 8.87304 10603 ft 354 kts 123°
2026-05-04 15:54 49.82921 8.90684 10993 ft 363 kts 122°
2026-05-04 15:55 49.81681 8.94116 11523 ft 367 kts 122°
2026-05-04 15:55 49.80386 8.97530 12071 ft 370 kts 124°
2026-05-04 15:55 49.79011 9.00911 12633 ft 373 kts 126°
2026-05-04 15:55 49.77584 9.04286 13200 ft 376 kts 126°
2026-05-04 15:56 49.76132 9.07671 13767 ft 379 kts 126°
2026-05-04 15:56 49.74667 9.11082 14257 ft 382 kts 126°
2026-05-04 15:56 49.73199 9.14523 14746 ft 386 kts 126°
2026-05-04 15:56 49.71720 9.18016 15255 ft 389 kts 126°
2026-05-04 15:57 49.70260 9.21483 15751 ft 392 kts 126°
2026-05-04 15:57 49.68769 9.25027 16239 ft 395 kts 126°
2026-05-04 15:57 49.67265 9.28597 16732 ft 398 kts 126°
2026-05-04 15:57 49.65753 9.32175 17193 ft 401 kts 126°
2026-05-04 15:58 49.64213 9.35806 17645 ft 404 kts 126°
2026-05-04 15:58 49.62555 9.39314 18087 ft 404 kts 134°
2026-05-04 15:58 49.60544 9.42330 18488 ft 403 kts 144°
2026-05-04 15:58 49.58235 9.44764 18870 ft 402 kts 153°
2026-05-04 15:59 49.55822 9.46965 19253 ft 404 kts 153°
2026-05-04 15:59 49.53438 9.49135 19677 ft 405 kts 153°
2026-05-04 15:59 49.51007 9.51347 20088 ft 407 kts 153°
2026-05-04 15:59 49.48566 9.53572 20488 ft 409 kts 153°
2026-05-04 16:00 49.46114 9.55806 20879 ft 411 kts 153°
2026-05-04 16:00 49.43642 9.58057 21270 ft 414 kts 153°
2026-05-04 16:00 49.41162 9.60312 21666 ft 416 kts 153°
2026-05-04 16:00 49.38657 9.62582 22046 ft 418 kts 153°
2026-05-04 16:01 49.36145 9.64856 22423 ft 421 kts 153°
2026-05-04 16:01 49.33717 9.67409 22769 ft 427 kts 143°
2026-05-04 16:01 49.31576 9.70504 23127 ft 431 kts 138°
2026-05-04 16:01 49.29456 9.73768 23500 ft 433 kts 138°
2026-05-04 16:02 49.27317 9.77040 23811 ft 435 kts 138°
2026-05-04 16:02 49.25165 9.80319 24115 ft 437 kts 139°
2026-05-04 16:02 49.20831 9.86905 24719 ft 441 kts 139°
2026-05-04 16:03 49.18659 9.90205 25018 ft 442 kts 139°
2026-05-04 16:03 49.16465 9.93533 25323 ft 444 kts 139°
2026-05-04 16:03 49.14295 9.96817 25635 ft 446 kts 139°
2026-05-04 16:03 49.12086 10.00161 25946 ft 448 kts 139°
2026-05-04 16:04 49.09865 10.03520 26241 ft 450 kts 139°
2026-05-04 16:04 49.05389 10.10248 26822 ft 453 kts 140°
2026-05-04 16:04 49.03105 10.13562 27100 ft 454 kts 141°
2026-05-04 16:05 49.00784 10.16843 27354 ft 456 kts 141°
2026-05-04 16:05 48.98443 10.20106 27600 ft 457 kts 141°
2026-05-04 16:05 48.93759 10.26617 28080 ft 461 kts 141°
2026-05-04 16:06 48.91400 10.29927 28312 ft 462 kts 141°
2026-05-04 16:06 48.85130 10.38782 29065 ft 462 kts 141°
2026-05-04 16:07 48.81996 10.43241 29499 ft 461 kts 139°
2026-05-04 16:07 48.75351 10.53801 30289 ft 462 kts 135°
2026-05-04 16:08 48.73184 10.57387 30495 ft 463 kts 135°
2026-05-04 16:08 48.66641 10.67986 31265 ft 460 kts 136°
2026-05-04 16:09 48.62226 10.74961 31807 ft 457 kts 137°
2026-05-04 16:09 48.57829 10.81876 32364 ft 455 kts 136°
2026-05-04 16:10 48.53493 10.88795 32918 ft 452 kts 136°
2026-05-04 16:11 48.47070 10.99073 33669 ft 450 kts 136°
2026-05-04 16:11 48.44904 11.02468 33932 ft 449 kts 137°
2026-05-04 16:12 48.38388 11.12560 34538 ft 448 kts 137°
2026-05-04 16:12 48.31866 11.22641 34936 ft 449 kts 137°
2026-05-04 16:13 48.27767 11.29727 34951 ft 453 kts 125°
2026-05-04 16:13 48.25193 11.38325 34949 ft 460 kts 107°
2026-05-04 16:14 48.22145 11.56993 34950 ft 461 kts 106°
2026-05-04 16:16 48.17669 11.79902 34940 ft 457 kts 122°
2026-05-04 16:16 48.11562 11.90563 34937 ft 450 kts 141°
2026-05-04 16:17 48.06949 11.96885 34937 ft 450 kts 140°
2026-05-04 16:18 47.97744 12.09550 34931 ft 452 kts 140°
2026-05-04 16:19 47.85974 12.24955 34940 ft 451 kts 143°
2026-05-04 16:20 47.73910 12.39887 34938 ft 451 kts 142°
2026-05-04 16:22 47.61926 12.54759 34943 ft 450 kts 142°
2026-05-04 16:23 47.48383 12.74082 34944 ft 453 kts 138°
2026-05-04 16:25 47.34651 12.93287 34977 ft 454 kts 139°
2026-05-04 16:26 47.18646 13.15590 35024 ft 454 kts 139°
2026-05-04 16:28 47.07157 13.31457 35035 ft 454 kts 139°
2026-05-04 16:29 46.91066 13.53545 35069 ft 453 kts 139°
2026-05-04 16:31 46.79544 13.69220 35055 ft 455 kts 139°
2026-05-04 16:32 46.65646 13.88032 35075 ft 456 kts 139°
2026-05-04 16:33 46.56311 14.00570 35056 ft 457 kts 139°
2026-05-04 16:34 46.49293 14.09970 35045 ft 458 kts 139°
2026-05-04 16:35 46.35235 14.28674 35058 ft 460 kts 139°
2026-05-04 16:36 46.28156 14.38056 35076 ft 460 kts 139°
2026-05-04 16:37 46.21099 14.47360 35082 ft 460 kts 140°
2026-05-04 16:38 46.11615 14.59816 35065 ft 462 kts 140°
2026-05-04 16:39 45.99729 14.75345 35069 ft 463 kts 140°
2026-05-04 16:40 45.90196 14.87744 35067 ft 462 kts 139°
2026-05-04 16:41 45.78284 15.03126 35063 ft 462 kts 139°
2026-05-04 16:43 45.66290 15.18531 35043 ft 465 kts 139°
2026-05-04 16:43 45.59074 15.27741 35053 ft 466 kts 139°
2026-05-04 16:45 45.44363 15.45901 35057 ft 466 kts 141°
2026-05-04 16:46 45.32098 15.60817 35070 ft 465 kts 140°
2026-05-04 16:47 45.22269 15.72763 35068 ft 465 kts 140°
2026-05-04 16:48 45.12442 15.84633 35082 ft 466 kts 141°
2026-05-04 16:49 45.02561 15.96497 35073 ft 467 kts 140°
2026-05-04 16:50 44.92644 16.08360 35078 ft 467 kts 140°
2026-05-04 16:51 44.85228 16.17192 35090 ft 468 kts 140°
2026-05-04 16:52 44.75256 16.29027 35086 ft 470 kts 140°
2026-05-04 16:53 44.67744 16.37893 35084 ft 470 kts 140°
2026-05-04 16:54 44.57750 16.49655 35082 ft 471 kts 140°
2026-05-04 16:55 44.42625 16.67352 35110 ft 473 kts 141°
2026-05-04 16:56 44.29997 16.82028 35095 ft 474 kts 140°
2026-05-04 16:57 44.22370 16.90855 35099 ft 475 kts 141°
2026-05-04 16:58 44.12209 17.02554 35109 ft 476 kts 140°
2026-05-04 17:00 43.96867 17.20123 35114 ft 477 kts 141°
2026-05-04 17:01 43.84069 17.34698 35113 ft 478 kts 140°
2026-05-04 17:02 43.73770 17.46356 35128 ft 479 kts 140°
2026-05-04 17:03 43.66066 17.55049 35119 ft 479 kts 140°
2026-05-04 17:03 43.58311 17.63777 35115 ft 480 kts 140°
2026-05-04 17:04 43.48094 17.75524 35135 ft 481 kts 139°
2026-05-04 17:05 43.37927 17.87499 35107 ft 481 kts 139°
2026-05-04 17:06 43.30238 17.96389 35132 ft 482 kts 139°
2026-05-04 17:07 43.23426 18.04267 35136 ft 482 kts 139°
2026-05-04 17:07 43.17472 18.11140 35138 ft 482 kts 139°
2026-05-04 17:08 43.09802 18.19955 35138 ft 482 kts 139°
2026-05-04 17:09 43.04659 18.25846 35140 ft 483 kts 139°
2026-05-04 17:09 42.99509 18.31743 35143 ft 483 kts 139°
2026-05-04 17:10 42.86620 18.46446 35160 ft 484 kts 139°
2026-05-04 17:11 42.81478 18.52280 35150 ft 485 kts 139°
2026-05-04 17:12 42.73696 18.61086 35153 ft 485 kts 139°
2026-05-04 17:13 42.60694 18.75755 35137 ft 486 kts 140°
2026-05-04 17:14 42.50298 18.87411 35142 ft 487 kts 139°
2026-05-04 17:15 42.42466 18.96158 35129 ft 486 kts 140°
2026-05-04 17:16 42.32030 19.07759 35124 ft 488 kts 140°
2026-05-04 17:17 42.21543 19.19398 35140 ft 487 kts 139°
2026-05-04 17:18 42.11076 19.30933 35101 ft 488 kts 139°
2026-05-04 17:19 42.00532 19.42494 35127 ft 489 kts 140°
2026-05-04 17:20 41.89873 19.53757 35140 ft 489 kts 142°
2026-05-04 17:20 41.81747 19.62000 35148 ft 488 kts 141°
2026-05-04 17:21 41.70964 19.73051 35155 ft 488 kts 141°
2026-05-04 17:22 41.65609 19.78525 35146 ft 488 kts 141°
2026-05-04 17:23 41.54786 19.89516 35174 ft 489 kts 141°
2026-05-04 17:24 41.46665 19.97743 35165 ft 488 kts 142°
2026-05-04 17:25 41.35863 20.08668 35153 ft 490 kts 141°
2026-05-04 17:26 41.24981 20.19589 35168 ft 490 kts 142°
2026-05-04 17:27 41.11410 20.33164 35151 ft 490 kts 141°
2026-05-04 17:28 41.00504 20.44046 35148 ft 491 kts 142°
2026-05-04 17:29 40.84125 20.60244 35149 ft 491 kts 141°
2026-05-04 17:31 40.70438 20.73727 35134 ft 491 kts 142°
2026-05-04 17:32 40.56737 20.87136 35144 ft 493 kts 142°
2026-05-04 17:33 40.45769 20.97988 35141 ft 493 kts 139°
2026-05-04 17:34 40.35591 21.09953 35139 ft 493 kts 135°
2026-05-04 17:35 40.22702 21.24811 35144 ft 495 kts 137°
2026-05-04 17:36 40.17542 21.30683 35131 ft 495 kts 137°
2026-05-04 17:36 40.12352 21.36611 35134 ft 496 kts 137°
2026-05-04 17:37 40.07154 21.42532 35130 ft 496 kts 137°
2026-05-04 17:37 40.01944 21.48453 35134 ft 496 kts 137°
2026-05-04 17:38 39.96736 21.54364 35137 ft 496 kts 137°
2026-05-04 17:38 39.91559 21.60227 35129 ft 496 kts 137°
2026-05-04 17:39 39.83721 21.69061 35137 ft 497 kts 137°
2026-05-04 17:39 39.78490 21.74947 35139 ft 497 kts 137°
2026-05-04 17:40 39.73261 21.80819 35159 ft 497 kts 137°
2026-05-04 17:40 39.68057 21.86647 35146 ft 497 kts 137°
2026-05-04 17:41 39.62814 21.92514 35134 ft 498 kts 137°
2026-05-04 17:41 39.57566 21.98375 35134 ft 498 kts 138°
2026-05-04 17:42 39.52305 22.04222 35138 ft 499 kts 138°
2026-05-04 17:42 39.47035 22.10070 35136 ft 499 kts 138°
2026-05-04 17:43 39.41806 22.15876 35152 ft 499 kts 138°
2026-05-04 17:43 39.36533 22.21716 35145 ft 500 kts 138°
2026-05-04 17:44 39.31241 22.27559 35133 ft 501 kts 138°
2026-05-04 17:44 39.25939 22.33393 35147 ft 501 kts 138°
2026-05-04 17:45 39.20631 22.39240 35146 ft 502 kts 138°
2026-05-04 17:45 39.15355 22.45040 35154 ft 502 kts 138°
2026-05-04 17:46 39.10037 22.50868 35145 ft 502 kts 138°
2026-05-04 17:46 39.04714 22.56691 35140 ft 503 kts 138°
2026-05-04 17:47 38.99377 22.62509 35142 ft 503 kts 138°
2026-05-04 17:47 38.94058 22.68278 35151 ft 504 kts 138°
2026-05-04 17:48 38.91384 22.71179 35026 ft 503 kts 138°
2026-05-04 17:48 38.88715 22.74081 34780 ft 503 kts 138°
2026-05-04 17:48 38.86049 22.76984 34539 ft 503 kts 138°
2026-05-04 17:48 38.83378 22.79888 34267 ft 503 kts 138°
2026-05-04 17:49 38.80689 22.82807 33205 ft 510 kts 138°
2026-05-04 17:49 38.77973 22.85746 32291 ft 512 kts 138°
2026-05-04 17:49 38.75244 22.88692 31313 ft 514 kts 138°
2026-05-04 17:49 38.72537 22.91611 30274 ft 518 kts 138°
2026-05-04 17:50 38.69782 22.94577 29327 ft 516 kts 138°
2026-05-04 17:50 38.67055 22.97513 28680 ft 507 kts 139°
2026-05-04 17:50 38.64375 23.00391 27676 ft 505 kts 139°
2026-05-04 17:50 38.61694 23.03267 27009 ft 498 kts 139°
2026-05-04 17:51 38.59062 23.06088 26291 ft 491 kts 139°
2026-05-04 17:51 38.56458 23.08880 25566 ft 485 kts 139°
2026-05-04 17:51 38.53886 23.11637 24862 ft 480 kts 139°
2026-05-04 17:51 38.51340 23.14346 24103 ft 474 kts 141°
2026-05-04 17:52 38.49539 23.15895 23360 ft 466 kts 150°
2026-05-04 17:52 38.45710 23.18090 21281 ft 448 kts 157°
2026-05-04 17:52 38.42858 23.19574 19753 ft 437 kts 158°
2026-05-04 17:52 38.40036 23.21014 18908 ft 434 kts 158°
2026-05-04 17:53 38.37284 23.22409 18566 ft 419 kts 158°
2026-05-04 17:53 38.34603 23.23771 17984 ft 411 kts 158°
2026-05-04 17:53 38.31973 23.25112 17456 ft 403 kts 157°
2026-05-04 17:53 38.30262 23.25989 17111 ft 398 kts 157°
2026-05-04 17:54 38.27710 23.27302 16453 ft 394 kts 157°
2026-05-04 17:54 38.25188 23.28602 15918 ft 388 kts 156°
2026-05-04 17:54 38.22703 23.29879 15376 ft 382 kts 156°
2026-05-04 17:54 38.20255 23.31134 14841 ft 377 kts 156°
2026-05-04 17:55 38.17838 23.32372 14292 ft 373 kts 156°
2026-05-04 17:55 38.15437 23.33603 13715 ft 370 kts 156°
2026-05-04 17:55 38.13064 23.34820 13139 ft 366 kts 156°
2026-05-04 17:55 38.10715 23.36028 12583 ft 362 kts 156°
2026-05-04 17:56 38.08386 23.37223 12031 ft 360 kts 156°
2026-05-04 17:56 38.06107 23.38391 11466 ft 357 kts 156°
2026-05-04 17:56 38.03809 23.39565 10937 ft 355 kts 157°
2026-05-04 17:56 38.01562 23.40708 10777 ft 340 kts 157°
2026-05-04 17:57 37.99420 23.41796 10655 ft 325 kts 156°
2026-05-04 17:57 37.97358 23.42846 10446 ft 315 kts 156°
2026-05-04 17:57 37.95339 23.43875 10133 ft 311 kts 157°
2026-05-04 17:57 37.93350 23.44885 9889 ft 307 kts 159°
2026-05-04 17:58 37.91311 23.45464 9525 ft 305 kts 173°
2026-05-04 17:58 37.89207 23.45729 9098 ft 303 kts 175°
2026-05-04 17:58 37.87105 23.45966 8651 ft 303 kts 175°
2026-05-04 17:58 37.85013 23.46203 8247 ft 301 kts 175°
2026-05-04 17:59 37.82931 23.46439 7849 ft 300 kts 175°
2026-05-04 17:59 37.80849 23.46686 7422 ft 301 kts 175°
2026-05-04 17:59 37.76785 23.46938 6988 ft 276 kts 197°
2026-05-04 18:00 37.75076 23.46066 6576 ft 260 kts 211°
2026-05-04 18:00 37.73352 23.45421 5978 ft 261 kts 182°
2026-05-04 18:00 37.71625 23.45868 5396 ft 257 kts 150°
2026-05-04 18:00 37.70313 23.47301 4799 ft 248 kts 118°
2026-05-04 18:01 37.69711 23.49276 4200 ft 239 kts 98°
2026-05-04 18:01 37.69398 23.51307 4016 ft 236 kts 95°
2026-05-04 18:01 37.69392 23.53348 3935 ft 232 kts 72°
2026-05-04 18:02 37.70610 23.57004 3681 ft 224 kts 62°
2026-05-04 18:02 37.71248 23.58789 3561 ft 223 kts 62°
2026-05-04 18:02 37.71878 23.60551 3439 ft 223 kts 62°
2026-05-04 18:02 37.72512 23.62332 3308 ft 222 kts 63°
2026-05-04 18:03 37.73142 23.64108 3185 ft 221 kts 63°
2026-05-04 18:03 37.73772 23.65882 3083 ft 221 kts 63°
2026-05-04 18:03 37.74399 23.67653 2994 ft 220 kts 63°
2026-05-04 18:03 37.75026 23.69425 3009 ft 221 kts 63°
2026-05-04 18:04 37.75654 23.71201 2998 ft 221 kts 63°
2026-05-04 18:04 37.76283 23.72975 3006 ft 221 kts 63°
2026-05-04 18:04 37.77487 23.76380 3007 ft 208 kts 63°
2026-05-04 18:05 37.78085 23.78033 3002 ft 206 kts 58°
2026-05-04 18:05 37.78978 23.79400 3006 ft 201 kts 36°
2026-05-04 18:05 37.80079 23.80446 3000 ft 201 kts 34°
2026-05-04 18:05 37.81201 23.81505 2958 ft 201 kts 34°
2026-05-04 18:06 37.83354 23.83544 2528 ft 176 kts 34°
2026-05-04 18:06 37.84282 23.84424 2288 ft 157 kts 35°
2026-05-04 18:06 37.85121 23.85218 2087 ft 146 kts 35°
2026-05-04 18:07 37.85924 23.85979 1894 ft 143 kts 36°
2026-05-04 18:07 37.86714 23.86727 1706 ft 141 kts 36°
2026-05-04 18:07 37.87497 23.87469 1510 ft 140 kts 36°
2026-05-04 18:07 37.88266 23.88199 1323 ft 140 kts 36°
2026-05-04 18:08 37.89045 23.88938 1122 ft 141 kts 37°
2026-05-04 18:08 37.89829 23.89682 931 ft 141 kts 38°
2026-05-04 18:08 37.90616 23.90429 738 ft 142 kts 38°
2026-05-04 18:08 37.91405 23.91178 552 ft 142 kts 39°
2026-05-04 18:09 37.92945 23.92655 295 ft 121 kts 37°
2026-05-04 18:09 37.93770 23.93428 291 ft 36 kts 37°
2026-05-04 18:10 37.93919 23.93663 299 ft 33 kts 62°
2026-05-04 18:10 37.93968 23.93801 300 ft 13 kts 67°
2026-05-04 18:10 37.94005 23.93904 303 ft 13 kts 62°
2026-05-04 18:10 37.94068 23.93991 303 ft 14 kts 39°
2026-05-04 18:11 37.94150 23.94069 304 ft 16 kts 37°
2026-05-04 18:11 37.94188 23.94106 304 ft 0 kts 37°
2026-05-04 18:11 37.94196 23.94113 302 ft 6 kts 37°
2026-05-04 18:11 37.94266 23.94180 303 ft 15 kts 37°
2026-05-04 18:12 37.94355 23.94263 303 ft 17 kts 37°
2026-05-04 18:12 37.94452 23.94355 303 ft 18 kts 37°
2026-05-04 18:12 37.94558 23.94455 303 ft 20 kts 36°
2026-05-04 18:12 37.94657 23.94550 305 ft 9 kts 38°
2026-05-04 18:13 37.94680 23.94625 302 ft 10 kts 102°
2026-05-04 18:13 37.94638 23.94710 302 ft 12 kts 123°
2026-05-04 18:13 37.94517 23.94909 302 ft 16 kts 127°
2026-05-04 18:14 37.94444 23.95030 303 ft 18 kts 127°
2026-05-04 18:14 37.94366 23.95164 303 ft 20 kts 127°
2026-05-04 18:14 37.94279 23.95310 302 ft 22 kts 127°
2026-05-04 18:15 37.94117 23.95551 300 ft 12 kts 166°
2026-05-04 18:15 37.93988 23.95460 301 ft 11 kts 218°
2026-05-04 18:15 37.93924 23.95396 299 ft 12 kts 221°
2026-05-04 18:16 37.93881 23.95303 302 ft 13 kts 249°
2026-05-04 18:16 37.93845 23.95199 301 ft 13 kts 232°
2026-05-04 18:16 37.93825 23.95175 300 ft 0 kts 223°
2026-05-04 18:17 37.93821 23.95152 300 ft 2 kts 281°
2026-05-04 18:17 37.93834 23.95137 302 ft 3 kts 319°
2026-05-04 18:17 37.93868 23.95086 301 ft 0 kts 306°